GFSCGP_850_spd_072.txt.gz
Wind_Speed
3 4 3 4 5 5 3 3 5 5 5 5 8 16 10 10 14 16 20 19 17 15 14 13 15 17 17 14 12 15 18 21 25 24 28 38 45 45 39 41 35 29 29 28
5 3 5 4 5 4 4 3 4 5 5 7 9 23 18 13 9 17 14 13 16 14 19 21 18 20 22 22 18 15 14 19 25 29 31 31 37 43 41 40 35 33 30 28
5 5 2 3 2 3 3 4 3 5 3 5 7 9 5 5 4 5 10 14 19 22 18 16 19 21 24 24 24 24 17 17 19 27 33 34 32 39 46 45 37 39 36 32
4 3 3 3 2 4 3 4 4 5 4 3 4 6 2 8 9 4 12 21 19 18 20 21 24 27 28 30 29 29 26 21 20 21 31 38 42 40 41 45 41 42 37 33
7 2 4 2 5 5 7 3 3 3 3 2 3 4 5 4 4 8 8 13 12 20 23 23 23 22 24 26 26 29 31 29 25 23 25 34 39 41 43 50 47 45 37 33
7 3 3 5 2 3 3 4 5 4 2 2 6 5 1 2 6 6 7 15 18 17 19 24 28 32 34 31 31 28 29 33 31 28 27 31 38 42 40 44 50 48 36 30
3 2 1 2 2 3 5 6 4 4 2 5 1 4 8 10 17 6 8 15 17 20 26 30 36 41 41 41 38 33 30 33 36 34 32 29 37 39 42 40 44 48 37 29
2 4 3 0 3 4 4 6 4 5 3 6 3 8 7 6 12 15 10 13 21 25 26 33 41 44 44 47 43 34 32 36 36 39 35 30 36 41 43 44 45 50 40 29
3 4 4 3 4 6 2 3 4 2 2 2 5 8 12 15 12 6 11 17 21 24 28 34 43 51 53 54 49 33 34 38 38 40 41 34 33 42 46 44 44 46 38 31
3 4 4 5 1 2 5 5 0 3 3 5 5 6 10 11 15 5 9 17 27 26 27 38 48 46 48 43 36 30 33 38 41 43 44 38 33 39 43 46 43 37 36 32
4 3 4 3 4 6 1 1 3 3 4 4 5 6 5 6 9 9 9 19 27 23 27 35 44 37 36 30 30 35 32 35 43 43 46 41 36 37 39 40 34 37 37 32
3 4 4 9 7 4 5 6 6 3 4 4 3 15 4 14 13 8 16 23 27 22 24 37 42 39 41 35 34 36 33 35 44 42 47 43 36 36 36 34 35 39 34 27
4 2 3 6 2 3 3 5 5 3 1 9 8 12 4 4 7 21 23 26 27 22 25 35 42 39 43 45 37 36 31 33 39 41 43 40 38 35 33 35 37 34 26 26
6 6 7 9 6 3 8 14 10 7 5 9 18 26 22 18 17 13 22 24 22 25 23 27 35 42 46 49 38 42 32 25 29 36 39 37 37 35 34 36 32 25 27 28
6 8 9 13 13 11 14 18 18 16 20 13 27 18 21 19 17 10 17 19 22 24 22 24 29 35 44 50 43 39 35 20 21 31 37 34 35 32 32 33 28 27 27 28
4 4 4 4 7 12 19 22 20 19 19 18 25 24 21 25 11 11 18 20 20 18 21 25 35 43 48 49 42 50 38 13 12 19 32 35 32 33 33 32 30 29 27 28
4 3 3 9 7 7 10 17 13 6 6 6 7 15 5 5 6 7 19 24 20 18 25 31 35 36 37 43 47 42 33 1 7 10 21 30 34 36 34 31 28 27 28 29
7 6 4 5 2 5 6 3 5 9 9 7 8 12 10 9 8 17 23 25 20 23 24 35 33 35 39 43 29 28 24 8 4 11 21 27 32 32 29 26 27 29 29 32
15 8 3 3 4 7 7 3 1 4 6 3 10 10 7 10 15 19 26 19 23 33 30 34 42 39 40 38 38 32 20 14 3 7 15 25 28 27 27 31 32 31 31 33
7 10 3 2 3 4 6 1 3 2 9 2 4 7 6 8 14 14 29 31 34 35 28 39 42 35 34 30 30 29 19 7 2 9 16 21 22 25 32 33 33 31 36 36
4 3 9 7 5 6 6 2 2 2 5 9 8 10 12 11 18 36 36 36 34 31 32 38 36 36 32 27 26 22 18 3 6 10 14 18 25 28 33 36 30 35 35 32
1 1 2 3 5 6 5 2 5 5 24 21 24 29 27 28 33 27 35 35 32 30 32 34 36 37 27 23 23 20 12 6 11 12 15 20 27 37 36 34 36 34 32 31
2 4 2 6 5 7 8 17 29 28 26 21 27 32 31 33 33 32 38 35 32 28 33 31 35 35 25 20 20 19 6 4 9 2 8 22 35 37 34 35 36 34 32 30
4 1 4 4 6 10 22 31 30 28 31 40 31 33 35 34 30 29 34 34 29 30 30 25 31 33 25 15 17 11 9 7 10 7 10 18 31 34 33 33 33 32 30 29
6 4 4 6 10 16 22 25 30 38 35 31 31 33 32 29 29 32 35 36 36 34 27 29 30 34 21 14 14 5 8 12 5 5 17 20 35 34 34 33 30 27 26 23
3 5 3 4 22 25 25 34 35 31 29 33 31 31 38 37 35 35 39 38 32 27 33 35 32 23 15 12 13 4 9 10 10 28 28 38 38 35 32 30 28 24 21 17

GFSCGP_850_spd_075.txt.gz
Wind_Speed
2 5 5 4 4 3 3 4 6 5 7 7 12 18 18 22 21 21 20 20 21 12 7 4 8 10 11 13 11 7 31 24 24 24 22 24 24 30 39 42 41 34 35 34
3 8 6 5 3 4 4 5 7 7 6 11 14 20 18 17 17 22 22 20 17 12 10 10 7 9 11 14 16 16 11 10 25 33 24 23 21 22 26 35 39 41 36 34
4 1 5 4 3 5 5 7 6 9 8 12 12 12 5 8 13 12 15 12 8 13 16 9 10 13 13 16 18 20 20 18 16 17 17 23 22 23 25 26 38 41 34 28
5 0 5 5 4 6 8 5 6 8 8 8 6 8 10 14 6 5 5 10 13 8 8 14 14 15 14 15 16 19 22 25 23 20 20 19 23 26 27 26 27 35 37 39
4 3 6 8 10 9 6 1 6 8 12 11 13 7 4 3 6 1 6 9 12 9 10 12 14 18 21 24 22 22 22 25 28 27 24 22 23 27 28 29 30 30 43 41
13 2 5 7 2 8 3 4 8 4 4 6 5 7 4 4 8 5 10 12 8 9 8 11 16 22 25 27 27 27 27 26 26 31 30 28 27 27 31 31 34 32 34 39
5 6 2 4 6 3 3 3 6 3 4 4 4 9 11 10 11 15 16 16 13 7 10 14 19 23 27 33 34 33 37 32 28 31 34 33 31 29 32 33 35 39 35 36
7 9 6 5 5 3 4 4 5 5 4 7 10 9 3 6 12 17 17 11 13 14 17 23 18 18 26 31 32 37 35 35 32 32 34 35 35 32 33 36 39 41 39 36
5 6 2 6 1 3 4 7 2 7 9 8 7 12 13 15 8 5 6 3 11 15 24 20 22 22 24 25 29 32 32 32 31 33 35 38 39 36 34 36 40 41 39 33
1 6 5 4 1 6 9 8 4 2 4 6 6 17 12 15 11 5 8 14 17 27 25 19 16 23 29 25 26 32 29 28 28 33 37 38 41 40 37 34 40 43 39 34
4 5 3 3 7 7 5 7 4 3 4 4 8 6 3 9 13 11 13 12 27 27 24 22 20 24 24 29 36 33 33 31 29 29 35 37 38 41 41 38 40 45 40 35
5 3 9 14 11 7 8 11 10 6 6 7 11 18 13 16 12 8 16 27 26 21 20 20 23 27 32 30 32 30 35 33 29 29 30 36 37 38 43 43 39 41 39 34
6 4 6 7 4 4 6 10 10 9 4 15 11 12 3 8 19 28 27 22 21 20 23 21 20 25 31 34 30 32 35 32 33 31 27 32 36 37 43 44 39 38 32 35
4 6 12 14 10 1 5 9 12 13 9 16 18 30 27 26 22 21 24 24 18 22 19 19 22 27 32 32 35 31 33 33 33 31 28 34 39 39 43 44 37 35 34 35
4 13 15 19 22 21 24 26 24 22 23 18 23 23 28 23 23 21 23 17 17 22 18 20 24 30 34 36 28 31 34 33 33 31 29 33 42 41 43 42 36 32 35 34
6 10 12 15 13 15 19 25 25 26 26 25 27 27 25 26 20 17 15 14 18 23 24 23 25 30 35 34 31 37 42 37 34 31 31 27 34 37 43 37 34 36 37 37
5 5 3 12 9 11 13 25 23 22 19 17 17 18 15 16 15 16 18 17 22 28 28 24 29 32 41 42 35 46 43 43 33 32 31 28 34 35 36 36 39 39 39 38
17 13 7 10 11 10 8 3 5 7 11 14 16 18 14 14 20 15 19 22 24 26 26 29 31 31 36 40 39 45 47 42 34 33 29 33 36 34 38 41 41 40 39 35
19 15 6 4 9 13 14 8 2 5 12 7 12 9 17 25 24 21 19 25 30 27 30 32 29 31 37 36 31 40 43 32 42 24 31 36 34 38 43 42 40 37 35 33
9 10 4 4 5 4 2 2 3 2 12 6 10 16 20 25 16 16 24 29 29 26 29 30 30 30 36 37 37 33 35 34 32 19 25 30 33 37 38 40 38 34 31 30
3 4 10 9 6 7 5 3 4 4 6 15 25 26 27 18 21 37 33 34 30 26 28 29 29 33 34 38 35 36 31 27 24 17 16 23 27 32 34 34 32 34 31 33
2 3 2 4 5 6 3 2 5 15 28 24 34 31 26 33 38 34 34 35 33 32 29 27 29 32 38 31 28 30 25 20 17 10 11 16 22 25 27 32 35 32 34 39
3 3 4 4 5 16 27 22 22 25 28 33 28 28 31 34 38 36 35 35 34 31 31 28 27 32 31 26 22 25 15 12 10 6 11 15 17 21 29 34 33 34 42 40
3 3 4 8 2 14 30 32 31 29 29 28 31 30 34 37 42 43 40 39 36 33 34 35 33 28 27 24 23 18 13 1 3 3 12 16 20 27 33 34 36 42 40 38
7 9 6 12 16 19 20 23 33 36 32 31 30 36 40 44 45 40 40 41 36 33 34 30 29 24 26 26 19 15 7 2 7 3 12 21 29 35 33 36 38 36 34 33
2 3 3 6 26 25 27 36 37 36 31 33 41 41 37 35 33 33 38 38 36 33 26 28 23 23 25 20 16 14 8 5 11 7 17 28 32 30 33 34 33 30 27 24

GFSCGP_850_spd_078.txt.gz
Wind_Speed
6 9 11 8 3 8 9 10 12 10 8 12 16 17 18 22 23 25 24 22 21 15 11 10 7 6 7 10 9 7 16 34 42 33 16 13 15 20 24 24 33 33 50 40
9 13 9 5 6 8 10 12 13 9 10 11 16 20 20 20 22 23 21 24 23 18 15 11 7 4 6 7 9 10 9 16 36 41 44 35 32 22 21 24 27 36 44 43
10 5 1 8 9 11 13 13 11 13 12 16 19 20 20 9 11 13 17 12 15 11 7 4 4 5 7 7 9 9 11 13 17 35 45 53 38 38 36 32 36 33 40 41
9 6 8 9 10 8 13 5 8 12 13 13 7 10 11 11 12 5 6 5 7 6 2 2 3 5 8 10 10 12 12 12 10 15 26 40 49 39 49 40 43 30 33 40
9 10 12 12 13 11 15 3 12 13 15 17 19 11 14 3 9 6 5 2 2 4 4 5 5 7 9 11 13 15 16 15 13 15 19 23 31 44 42 42 33 31 33 27
19 15 9 15 10 10 9 12 15 16 13 14 20 15 10 7 8 12 9 8 4 6 6 5 6 10 12 12 12 14 17 19 19 19 19 23 29 31 29 28 30 43 30 24
19 19 18 11 14 9 11 14 11 11 10 11 6 6 12 5 5 4 11 12 10 9 7 8 12 14 13 15 16 15 13 17 22 23 24 23 28 32 34 34 30 30 24 24
16 15 16 13 16 16 11 10 10 13 11 9 4 7 1 4 4 10 11 7 5 7 7 13 16 14 15 17 17 20 20 20 20 24 26 28 28 29 28 31 32 28 26 26
8 15 6 6 8 10 11 10 9 15 17 15 13 13 12 13 8 8 9 5 9 6 13 16 15 14 15 17 18 19 22 26 25 24 27 28 30 32 35 35 33 29 31 25
12 13 16 9 6 15 15 10 7 9 8 14 10 11 8 11 3 4 7 12 13 14 21 21 20 18 17 18 20 23 24 27 28 28 27 27 28 29 35 38 38 37 35 35
11 10 13 7 13 16 9 13 11 11 12 10 12 4 8 3 7 10 10 13 13 22 23 21 20 20 22 22 22 25 27 28 27 28 29 28 29 30 31 36 40 40 37 35
12 7 13 17 13 11 14 18 16 11 15 14 13 14 5 3 6 8 16 23 26 22 22 20 22 22 21 22 26 27 28 30 28 29 30 29 30 29 31 34 39 40 40 38
5 9 11 14 13 4 11 17 16 16 16 17 13 12 2 9 15 20 20 21 21 22 22 21 20 20 20 22 24 29 31 32 28 29 31 32 32 32 30 33 36 39 40 37
2 15 17 14 16 5 7 10 12 17 12 15 20 26 22 21 20 17 20 20 20 21 19 19 20 22 24 25 27 30 33 31 29 30 30 31 32 35 33 32 36 36 32 29
10 18 18 21 21 20 24 23 23 22 24 24 26 28 24 23 21 21 23 23 20 21 21 22 26 29 31 29 31 32 32 30 31 32 32 33 32 34 35 33 34 32 32 31
16 22 22 25 21 19 20 23 25 27 28 29 29 30 25 28 27 18 21 19 22 23 24 26 29 30 28 30 33 32 34 32 33 37 35 34 34 33 35 33 34 33 34 32
13 10 12 17 17 11 14 23 25 26 25 23 24 24 18 14 16 15 20 25 27 26 27 29 32 30 31 32 33 33 36 35 37 37 38 38 36 35 35 33 34 37 37 35
19 14 8 9 11 13 15 8 11 13 14 13 16 17 17 17 16 21 26 31 27 27 29 34 33 32 33 33 34 37 43 39 43 51 49 39 34 36 33 35 37 38 39 42
18 15 5 6 9 16 21 11 9 11 17 16 14 13 13 19 27 29 32 21 25 30 32 32 31 33 35 36 35 44 44 44 52 52 42 35 31 34 34 38 39 40 41 41
5 2 5 5 5 5 1 1 7 10 15 12 10 13 17 26 20 19 29 30 32 33 34 34 34 36 35 37 38 40 43 46 53 36 30 35 33 34 38 40 41 43 43 41
2 2 13 13 7 8 6 8 7 7 6 25 26 27 28 18 22 34 33 35 35 36 36 36 36 37 36 37 38 44 38 46 42 47 44 36 37 42 41 42 44 44 41 39
3 3 4 5 5 6 10 17 9 19 28 29 32 29 29 33 36 35 37 37 39 37 37 36 37 38 36 38 40 42 43 52 52 19 35 37 42 43 44 44 43 44 44 41
3 4 4 4 5 18 19 18 24 22 25 30 31 35 31 37 40 37 39 42 44 43 42 38 37 40 38 38 34 36 39 42 42 35 30 36 42 42 44 47 46 42 39 43
5 7 6 9 2 13 23 29 23 24 30 34 37 39 38 39 41 44 43 43 45 45 37 33 38 39 37 30 26 32 31 28 22 26 17 29 36 39 40 40 39 38 37 37
8 9 9 14 17 23 17 22 32 34 36 36 39 40 41 41 44 40 39 39 40 41 39 36 38 37 33 27 23 24 23 16 8 16 11 20 32 39 40 37 32 30 34 42
5 3 3 6 25 23 26 36 38 39 38 39 39 45 39 30 37 40 37 33 33 34 31 25 25 26 24 20 20 17 16 8 3 9 15 23 30 37 39 40 37 34 35 33

GFSCGP_850_spd_084.txt.gz
Wind_Speed
16 11 12 16 17 18 16 17 17 21 22 17 16 17 14 17 23 25 22 25 27 25 25 20 13 16 18 19 19 12 16 29 35 35 23 24 9 9 6 7 8 25 29 28
14 14 15 16 16 18 14 17 19 20 20 18 20 22 18 19 22 27 28 27 21 22 25 23 25 19 15 19 21 21 19 18 27 26 20 33 34 29 14 7 6 10 13 19
15 16 17 9 15 16 15 17 19 20 20 21 21 20 19 25 32 37 35 31 27 24 25 28 31 29 19 15 17 19 26 24 19 24 24 25 32 33 31 37 37 27 22 22
15 16 16 16 12 14 17 16 17 17 17 15 16 17 20 21 21 18 15 20 24 21 17 13 27 24 17 11 10 15 20 27 22 17 16 30 36 35 36 35 34 31 23 26
18 16 17 17 15 16 19 16 16 20 19 21 21 14 19 20 22 21 18 25 13 11 11 12 11 11 12 9 13 13 15 19 20 20 20 16 27 34 37 33 28 33 27 32
22 26 23 22 20 16 18 16 17 18 17 16 24 21 21 18 20 17 14 18 15 9 14 15 15 17 11 13 15 15 11 15 17 20 22 21 24 21 31 36 30 34 41 37
22 24 25 25 24 22 21 17 13 16 13 15 22 14 10 16 3 12 14 13 13 12 13 12 13 16 15 18 17 14 15 16 11 12 16 21 22 26 25 26 32 38 41 39
19 21 20 18 16 19 21 18 11 15 15 17 22 6 11 12 18 13 6 19 9 7 12 16 17 18 16 13 14 15 15 14 18 19 17 18 19 21 24 28 28 31 41 40
18 26 22 19 17 14 18 18 19 18 13 11 17 26 23 19 22 11 10 9 11 9 10 11 9 5 11 16 17 16 15 18 16 22 20 21 23 22 22 23 27 29 32 33
17 21 20 21 22 17 16 17 15 10 7 18 17 19 12 18 10 11 8 11 10 9 13 12 14 17 16 17 21 19 20 21 21 20 18 23 21 23 26 24 26 29 35 37
16 16 19 21 19 21 13 17 18 16 13 15 16 15 4 3 2 12 11 13 13 12 15 14 17 19 22 17 22 23 22 23 21 20 19 19 24 25 27 28 28 30 32 34
18 13 16 18 23 22 19 18 16 15 12 12 11 17 10 7 5 13 19 11 15 17 19 18 17 18 18 18 25 22 20 21 22 20 22 23 20 19 26 29 31 31 30 31
8 7 11 13 18 16 6 17 20 15 12 19 14 17 12 10 3 15 27 33 26 16 14 15 16 18 21 23 23 21 22 22 24 23 22 23 23 23 25 30 32 35 33 33
4 13 17 16 22 21 12 19 12 11 8 14 16 23 17 13 16 16 31 26 31 28 20 21 19 21 20 21 22 22 23 22 17 24 28 24 23 25 26 25 23 29 34 38
2 14 19 19 22 24 24 25 21 18 18 18 25 24 23 18 19 17 31 29 43 28 24 21 15 16 16 20 23 27 27 26 27 27 18 27 25 24 26 28 37 34 33 37
10 4 16 20 19 25 28 26 27 27 23 27 24 25 21 25 29 26 28 30 20 15 18 23 21 22 20 24 28 26 28 22 22 28 30 27 28 28 28 30 33 39 39 34
16 14 15 19 19 20 14 18 27 20 20 22 15 19 21 21 20 22 23 23 20 16 20 23 23 25 23 25 21 23 25 28 32 33 34 32 32 32 29 32 36 38 43 43
13 14 11 13 15 18 19 6 8 11 11 16 16 14 8 15 18 20 20 21 22 21 18 22 24 25 26 28 30 36 39 36 36 35 34 34 35 34 38 41 36 40 43 44
9 11 5 5 10 18 21 8 8 7 13 13 8 12 16 24 27 23 22 19 27 31 31 31 30 31 35 37 41 41 40 43 44 43 43 44 44 40 35 37 41 41 43 49
5 5 4 8 4 6 7 4 12 10 11 16 19 15 17 24 14 14 33 37 37 37 34 35 36 39 42 42 36 38 42 47 47 46 47 46 47 47 46 45 46 48 50 53
3 2 5 9 7 9 13 17 21 10 9 28 29 29 24 15 16 32 37 35 33 34 39 42 44 43 42 41 41 46 45 46 46 42 38 38 39 41 45 53 53 51 48 49
2 3 2 3 4 6 10 7 7 13 25 30 29 29 32 36 39 39 37 38 39 38 40 42 46 45 42 43 45 46 47 48 46 48 50 57 59 62 61 58 56 58 52 47
4 1 3 4 6 17 24 22 22 29 29 30 34 37 37 39 41 41 43 39 36 38 43 48 44 43 42 42 44 48 51 47 48 60 70 72 72 72 66 57 54 47 43 45
9 10 6 8 7 19 29 26 31 31 35 39 38 40 36 36 37 38 42 45 47 44 41 40 41 43 41 37 39 40 39 45 52 58 71 77 58 62 65 58 47 46 40 46
5 11 11 15 12 32 14 26 32 35 37 40 30 40 44 41 40 40 39 39 39 37 35 34 34 38 42 45 46 41 38 40 51 52 51 11 14 39 52 51 46 41 41 46
7 5 2 4 21 16 27 39 38 40 38 36 41 42 38 35 38 38 37 33 34 35 36 40 44 41 40 34 37 37 34 35 35 32 3 13 28 30 35 32 35 39 35 38

GFSCGP_850_spd_087.txt.gz
Wind_Speed
16 4 7 14 13 13 10 12 8 9 10 9 13 10 8 8 11 10 16 19 21 23 20 23 24 24 23 24 29 31 29 27 27 29 27 30 21 17 15 14 17 31 33 24
6 9 13 18 13 9 9 12 8 9 11 12 12 12 9 8 5 10 15 26 31 25 33 26 27 27 28 30 27 24 20 25 28 28 30 30 33 33 14 13 13 7 18 27
9 10 13 13 9 7 7 11 7 9 15 12 8 12 13 8 14 22 29 33 38 35 28 32 34 35 34 31 28 26 23 20 24 31 32 29 28 31 36 29 24 22 19 17
9 10 13 12 8 5 6 9 12 12 7 4 5 12 15 8 15 19 29 32 37 43 39 29 40 37 30 23 17 14 17 21 18 16 25 33 35 37 37 44 32 32 25 31
12 11 11 14 13 9 9 8 10 10 7 7 7 8 17 8 11 16 18 31 33 37 41 25 32 34 23 17 12 7 11 15 18 17 19 21 22 27 29 32 43 34 30 29
13 23 12 15 18 17 16 7 8 5 4 10 13 10 17 14 6 8 17 32 25 21 24 25 29 25 20 17 12 12 17 20 16 19 19 21 21 24 25 31 28 33 38 32
17 19 19 19 21 19 13 8 6 7 5 14 13 13 15 7 4 7 10 23 25 23 25 23 23 26 25 20 13 15 15 14 16 16 17 19 20 20 22 23 25 35 40 40
12 12 9 11 13 11 10 17 9 12 6 13 12 9 9 8 10 12 11 17 7 13 18 20 23 22 24 20 16 20 24 18 16 18 20 19 17 20 19 21 22 25 29 36
9 13 11 14 17 13 8 5 7 4 13 3 4 9 13 21 5 8 14 15 2 13 10 6 17 31 24 16 18 27 27 25 23 21 23 24 24 20 19 20 20 21 24 26
7 17 6 11 16 11 8 6 4 2 4 7 7 9 6 5 5 8 3 7 22 11 11 10 9 17 17 14 15 17 22 25 26 25 22 22 20 20 23 20 20 21 23 24
14 9 13 10 8 7 8 6 3 3 4 4 4 6 3 3 5 7 6 14 21 22 7 15 20 20 19 21 24 22 26 29 29 28 25 24 23 23 23 27 22 24 26 26
16 11 14 12 10 11 8 5 5 0 3 2 4 9 6 5 2 3 7 12 16 21 33 25 20 21 20 26 23 20 21 25 29 28 28 28 27 23 25 28 26 27 25 25
5 3 5 7 4 4 3 2 5 5 3 8 5 4 9 19 7 15 11 15 12 14 40 26 21 32 19 20 24 23 23 24 21 25 29 30 25 26 26 29 28 27 27 28
8 6 8 7 12 10 13 12 12 8 4 6 7 12 21 16 10 14 17 17 14 17 40 30 22 44 46 25 23 22 21 21 20 23 29 27 28 29 30 31 28 29 31 31
2 1 5 9 14 16 15 21 18 18 11 11 18 16 17 11 14 10 25 25 25 29 35 35 39 30 25 15 16 18 21 24 25 25 27 26 29 34 34 34 33 34 35 34
3 3 5 12 14 17 19 17 17 14 15 17 17 18 2 11 14 14 17 11 7 12 14 24 9 5 6 2 9 19 19 16 22 26 24 30 31 35 38 37 35 32 33 39
5 3 3 9 8 12 10 12 11 10 15 10 6 6 9 7 8 12 16 18 19 11 16 18 25 25 21 17 18 23 27 27 25 23 23 25 29 33 35 36 36 35 37 39
7 4 3 6 6 3 8 8 1 8 6 1 9 12 13 11 18 22 22 18 18 18 19 22 27 32 32 28 28 30 30 34 37 39 40 39 39 40 41 41 44 46 43 41
2 4 1 1 2 10 9 5 3 5 3 7 4 12 16 25 25 17 19 29 25 24 24 25 26 29 31 34 33 34 38 41 43 45 44 44 43 42 44 44 44 46 47 46
6 5 4 1 2 3 4 8 16 7 6 15 13 11 13 20 10 10 30 35 38 38 35 34 38 37 35 34 33 36 41 42 44 41 35 33 37 44 48 50 52 51 53 51
3 2 2 3 4 5 11 13 18 3 6 25 26 23 22 12 15 34 37 41 41 38 37 40 39 38 34 36 37 44 47 46 47 43 43 45 50 49 48 49 48 49 51 47
1 1 0 1 3 4 13 5 3 7 16 22 25 25 27 31 32 35 36 38 39 39 39 34 38 39 41 43 43 45 45 44 43 47 52 50 50 51 50 50 51 50 48 48
3 2 2 3 4 8 13 4 10 17 20 23 29 35 37 36 39 39 46 43 43 43 43 44 47 44 37 39 42 45 46 44 42 45 49 49 52 52 48 51 54 52 52 47
4 7 2 5 4 14 26 16 32 33 28 33 36 33 39 43 40 41 37 39 38 41 38 37 40 39 42 38 41 48 53 52 48 50 57 58 59 61 66 70 65 62 57 50
4 6 6 5 4 23 1 29 28 33 34 35 33 36 39 34 37 36 36 38 40 38 36 36 36 38 42 46 44 40 38 35 40 45 54 60 57 49 54 67 67 65 62 56
4 1 2 4 15 9 23 37 39 37 36 41 41 44 40 33 36 37 37 37 38 39 39 38 39 38 37 37 41 37 30 32 41 51 52 51 14 6 8 37 47 50 52 49

GFSCGP_850_spd_093.txt.gz
Wind_Speed
0 2 6 10 8 7 4 4 9 11 15 5 8 8 10 13 14 13 17 20 14 12 13 13 14 19 25 34 37 36 33 34 34 34 34 33 33 33 32 28 30 40 40 36
3 6 11 6 6 7 9 11 13 11 12 6 9 9 9 6 5 11 15 16 20 17 19 19 17 18 20 32 38 36 36 37 37 35 34 33 28 28 30 29 31 32 31 34
7 10 4 6 7 6 8 6 8 13 6 4 4 6 6 5 8 16 20 20 24 27 27 26 24 21 28 32 35 37 37 36 37 37 34 31 26 25 25 25 24 25 23 25
6 14 9 10 6 6 7 7 10 8 3 7 4 16 5 6 9 6 18 26 31 30 28 28 30 29 29 36 38 38 40 39 38 39 40 40 39 34 31 30 24 20 21 19
10 6 8 6 11 7 10 8 9 9 6 1 4 5 5 6 7 13 8 24 26 27 21 21 27 34 37 37 42 44 41 39 38 36 38 37 36 35 29 27 28 30 25 21
12 6 7 11 13 7 2 5 4 4 1 6 8 9 8 7 8 7 8 25 28 27 25 26 33 41 44 36 41 45 42 39 35 33 30 29 32 33 34 36 34 32 32 32
16 12 5 4 6 7 3 5 3 4 3 12 5 7 9 6 9 11 12 26 29 20 19 23 28 27 35 37 40 42 38 36 28 23 20 20 23 26 30 32 34 36 38 37
4 9 6 2 7 8 8 8 4 7 5 12 4 6 5 5 14 24 25 24 27 17 8 3 11 13 20 30 39 38 31 24 21 18 18 19 13 15 18 23 28 30 30 29
2 5 4 7 1 3 2 4 6 4 2 6 4 6 6 4 8 9 18 30 28 22 7 8 1 7 15 29 25 20 20 22 20 16 15 18 16 15 13 14 21 22 23 25
2 5 7 3 6 5 5 1 3 3 4 8 4 4 5 5 7 8 11 17 27 18 7 11 11 13 24 28 30 32 28 25 23 20 15 20 19 20 18 14 14 17 16 16
4 5 5 3 5 6 4 2 3 2 3 3 4 5 5 5 5 6 8 18 21 26 19 1 3 10 12 20 31 28 30 29 27 24 23 26 25 27 24 21 17 16 14 14
2 5 6 10 8 8 6 2 4 3 3 3 3 6 7 8 6 8 17 24 32 32 30 32 22 12 10 11 14 23 35 36 39 36 31 32 31 33 32 28 25 22 21 18
5 3 4 7 2 3 6 2 4 3 1 6 4 5 3 8 11 19 17 19 21 18 33 39 34 26 22 24 20 18 22 31 40 44 42 44 40 37 39 36 32 30 27 24
9 4 6 4 6 3 7 10 6 6 3 5 7 17 14 14 14 14 16 18 16 16 25 26 27 22 19 19 18 17 17 17 20 26 30 37 47 50 41 41 39 36 34 29
2 4 9 10 12 9 12 12 12 11 11 8 15 13 8 9 10 9 13 19 23 20 10 13 14 13 13 13 14 14 19 16 12 16 23 30 36 43 51 46 45 43 42 37
6 5 4 14 13 14 16 16 13 14 14 11 6 6 1 9 15 13 17 19 17 17 18 20 20 20 20 21 24 21 17 14 15 17 18 16 25 35 43 44 47 47 47 43
5 2 1 4 3 4 6 5 2 3 3 1 3 2 9 11 12 16 21 25 19 19 24 28 30 31 32 31 31 30 29 28 25 25 23 19 18 19 21 31 38 44 49 48
5 5 3 3 3 2 2 2 6 6 1 3 2 8 10 13 20 28 31 27 16 22 29 34 38 42 41 41 42 40 36 36 35 35 35 33 31 31 29 29 30 32 36 43
10 4 1 1 2 6 2 3 4 5 6 4 5 12 18 20 23 25 15 13 28 39 43 35 36 41 42 45 47 45 46 45 46 46 44 42 40 40 39 42 42 42 41 43
4 3 3 2 2 4 3 4 8 3 7 3 6 9 11 19 11 15 24 33 39 36 31 38 50 38 40 51 41 41 45 47 45 45 45 44 43 42 42 40 39 42 44 45
1 2 4 3 3 5 2 7 10 3 3 11 14 17 17 13 19 39 37 40 41 39 44 44 38 44 42 39 37 38 38 42 46 46 46 48 49 49 50 50 49 46 43 46
2 0 1 1 3 5 1 6 3 3 16 17 23 25 27 32 35 33 37 43 40 34 40 46 38 38 35 35 38 47 49 44 47 48 46 47 50 53 50 47 50 50 47 47
1 3 3 6 4 1 3 11 12 12 16 20 25 29 35 38 34 38 45 33 39 43 38 31 36 40 42 39 38 40 43 42 44 45 45 46 50 54 53 50 47 45 46 48
5 2 1 3 0 3 22 8 7 23 23 27 31 35 33 36 38 40 40 41 38 36 38 34 36 38 40 41 40 40 41 39 42 44 44 45 48 49 49 49 49 47 47 49
5 5 2 5 4 14 6 17 27 28 30 32 35 34 39 40 43 34 40 39 36 37 38 37 38 39 42 41 40 37 36 37 41 41 41 42 43 47 51 54 57 59 58 55
3 2 2 4 6 7 18 26 28 28 30 35 37 39 38 43 39 39 39 39 38 38 38 39 39 38 39 39 40 37 35 37 42 44 45 44 47 51 52 51 52 57 59 57

GFSCGP_850_spd_096.txt.gz
Wind_Speed
2 3 6 9 7 5 2 3 7 7 13 3 8 8 12 18 14 17 15 13 15 15 14 12 12 13 14 20 32 36 35 34 36 37 39 37 34 32 31 31 25 27 33 35
4 6 9 5 4 5 5 6 8 9 11 5 9 10 10 7 8 15 13 15 20 22 22 20 22 19 18 19 22 33 39 40 39 41 40 38 36 29 29 30 26 24 28 35
7 8 5 6 4 4 5 5 5 9 5 3 4 4 6 5 6 16 22 22 22 24 26 29 29 25 22 22 22 23 33 43 43 41 42 36 34 33 34 32 32 30 31 32
6 7 7 5 6 8 7 9 10 6 1 7 4 12 7 5 10 7 22 25 24 26 30 24 25 27 26 28 27 27 32 40 44 43 42 40 42 40 39 37 35 31 31 33
9 3 3 6 13 6 9 2 8 7 6 0 4 6 5 1 7 10 9 27 29 28 26 25 21 22 25 27 27 29 34 41 45 46 45 43 41 39 34 30 28 27 27 27
8 1 6 7 5 7 5 3 2 4 2 5 8 7 4 5 8 6 9 21 27 30 31 35 30 30 30 30 35 40 42 44 48 48 49 46 44 41 36 31 29 29 29 28
7 12 6 5 7 11 4 4 4 4 3 11 6 4 7 7 9 6 8 18 22 26 29 28 27 27 29 31 38 39 39 44 46 48 47 47 44 40 37 31 28 26 27 29
3 9 6 3 7 9 7 8 5 7 4 8 4 6 6 6 3 4 4 12 20 24 30 23 25 22 27 27 32 23 27 36 42 44 42 33 27 25 25 24 26 29 31 28
2 4 4 4 2 6 3 5 3 2 2 4 5 6 6 1 1 7 13 18 24 24 23 25 19 22 20 22 21 17 23 27 30 29 26 24 19 17 17 16 17 20 24 27
3 4 3 7 2 6 6 2 1 2 5 7 4 4 6 6 4 6 9 17 27 30 25 20 18 19 21 18 10 12 22 27 30 28 23 22 20 17 15 13 14 10 12 18
2 3 3 3 5 8 2 2 2 1 3 6 11 5 5 4 2 6 9 23 29 30 29 25 21 23 24 19 21 23 25 25 28 27 27 27 25 18 18 17 18 18 13 13
3 2 4 10 12 11 12 17 12 6 4 4 2 6 1 2 2 6 16 25 30 29 26 25 24 26 27 22 19 27 30 29 26 24 28 32 29 27 27 24 25 24 20 18
5 2 4 6 1 3 2 3 3 0 1 4 3 5 2 8 14 20 19 23 24 24 23 23 21 19 25 21 21 21 17 20 27 36 38 36 36 36 34 33 32 31 27 24
6 3 6 10 3 6 7 8 9 6 3 4 8 19 15 6 6 10 15 22 25 22 17 13 13 14 12 13 15 13 8 7 9 13 27 42 45 44 45 41 40 38 37 34
5 4 6 6 13 15 17 19 16 15 14 8 17 17 15 4 5 8 13 18 21 23 22 18 20 19 22 23 21 20 12 6 8 10 14 18 23 29 33 36 39 42 40 42
8 3 5 11 16 17 15 17 15 14 15 14 16 18 2 7 11 11 15 21 25 22 20 21 24 25 26 33 33 32 29 23 19 16 17 16 18 19 25 32 38 39 38 40
5 5 1 6 4 4 7 7 9 3 3 3 4 1 5 8 11 18 23 31 28 26 21 27 34 36 34 39 40 41 41 38 34 31 28 27 25 23 21 22 24 31 38 40
6 6 4 4 4 3 1 2 5 2 6 5 7 3 7 10 18 24 28 24 25 22 30 40 44 45 47 46 44 46 47 45 43 43 41 38 35 34 31 29 30 28 27 31
13 5 3 2 3 5 2 0 2 3 5 3 3 7 13 18 18 26 16 18 29 37 40 38 39 42 44 46 51 49 47 48 47 49 49 48 46 45 43 41 39 36 35 33
7 5 3 1 3 3 3 3 4 1 9 8 5 7 10 14 11 13 30 38 38 34 35 43 46 42 43 47 43 46 50 48 44 45 47 47 47 45 45 44 43 43 42 42
4 3 7 5 3 5 2 2 4 1 3 10 9 16 17 11 15 34 40 42 37 37 41 46 38 40 47 48 46 40 42 42 43 41 42 43 42 38 40 40 40 41 41 42
1 1 2 2 2 5 1 3 1 3 7 15 20 24 26 30 35 37 40 40 42 43 39 41 44 44 41 33 34 39 43 44 42 44 45 44 42 42 44 47 45 40 39 39
1 3 2 6 5 2 1 8 18 13 17 23 26 26 31 34 37 39 41 43 47 41 40 43 38 38 40 37 34 39 46 43 42 41 43 43 42 43 44 43 42 42 40 43
3 2 1 3 2 2 15 2 12 24 23 28 30 30 33 37 37 42 36 45 41 37 42 37 34 38 40 39 38 42 42 42 42 43 44 45 45 45 44 46 44 44 44 45
5 2 1 4 3 13 2 12 30 31 30 28 29 33 34 38 39 38 42 43 36 40 38 38 37 37 41 41 41 40 40 39 41 43 45 45 45 45 46 45 47 49 51 47
4 2 2 4 6 7 16 27 26 28 30 34 34 35 38 38 40 38 47 44 39 42 39 40 39 39 40 39 40 38 36 37 40 44 43 41 42 46 45 47 48 48 49 49

GFSCGP_850_spd_102.txt.gz
Wind_Speed
15 11 14 14 11 12 8 11 13 11 9 10 15 15 13 15 16 17 17 17 17 17 16 15 13 10 11 13 18 24 28 30 28 23 23 23 26 25 26 28 30 30 36 35
8 15 14 9 9 10 12 14 15 13 11 9 15 17 15 13 19 20 20 20 20 19 18 17 17 16 14 17 19 17 20 25 33 26 26 26 24 24 25 25 25 30 34 37
17 2 4 9 12 14 15 16 14 13 13 13 16 20 20 18 21 17 21 23 22 22 19 17 14 14 15 15 19 23 24 22 23 31 29 25 24 23 25 27 27 32 35 35
12 17 16 15 13 13 16 12 13 15 14 14 10 16 17 17 17 14 23 23 19 16 14 13 16 17 17 16 15 18 23 27 26 25 24 31 32 31 31 29 29 29 33 36
6 7 6 14 16 13 14 9 10 12 15 17 18 13 15 18 12 14 13 16 11 5 7 10 12 15 18 18 18 17 20 21 22 24 27 25 31 33 33 31 30 31 30 37
17 8 8 11 1 8 8 11 16 17 14 17 19 19 16 13 13 14 11 9 0 5 8 9 12 15 18 18 18 16 17 22 24 25 25 27 30 33 31 34 32 31 31 31
17 18 18 13 13 14 13 13 12 15 14 16 17 13 11 13 15 13 12 7 2 6 8 10 12 12 13 12 13 14 15 19 20 24 26 27 29 32 37 36 36 33 31 29
12 12 9 4 14 17 16 11 12 21 16 19 21 21 12 3 3 4 2 6 7 8 9 10 12 14 14 14 15 16 15 16 18 21 25 27 32 29 32 35 36 34 34 29
8 12 3 3 6 7 11 15 13 18 21 20 19 25 18 15 13 9 8 5 7 12 14 14 15 14 16 16 16 17 17 17 16 17 22 25 25 25 29 32 31 33 29 24
7 9 16 21 14 17 15 14 10 9 9 17 11 11 8 4 5 4 5 5 9 12 17 20 22 22 19 17 17 16 15 15 15 15 14 12 16 19 25 27 27 27 29 24
9 11 16 15 14 15 11 13 14 12 14 11 17 11 5 5 2 3 5 7 13 17 19 21 21 21 21 19 17 15 14 14 13 13 13 12 11 17 17 20 23 26 24 22
7 6 11 19 17 14 15 17 17 7 11 11 12 13 14 5 5 4 10 16 20 18 20 20 17 17 17 16 17 17 15 12 12 12 11 11 12 9 11 12 13 16 20 19
3 4 7 7 10 8 10 10 11 15 1 14 15 11 8 3 9 15 19 19 16 14 15 16 17 17 17 17 17 18 16 16 14 13 12 14 9 13 15 12 11 12 16 14
3 8 13 13 14 11 12 15 11 10 4 14 17 22 15 14 17 16 16 15 14 15 17 18 18 19 19 20 20 20 20 19 17 17 13 12 13 19 16 15 16 17 12 11
7 5 13 16 16 17 18 18 21 22 15 13 16 22 21 19 17 13 14 14 16 20 20 20 21 22 23 25 24 23 23 22 21 20 20 18 15 16 26 22 23 22 25 26
8 5 8 13 15 13 18 20 21 22 23 23 23 23 18 8 13 14 16 18 19 22 26 25 25 24 27 28 28 27 27 26 24 24 24 22 19 18 18 20 27 25 29 38
3 5 4 12 9 11 15 12 11 12 14 14 16 14 14 14 12 17 21 22 26 29 26 27 26 30 31 31 30 31 29 28 28 29 27 26 24 23 22 19 17 18 33 42
6 11 6 8 7 10 3 3 4 7 8 7 11 14 12 14 19 22 25 29 29 28 31 32 33 35 34 32 33 32 32 33 32 32 31 28 28 27 26 23 23 22 23 26
19 12 4 4 7 14 16 3 4 7 11 10 11 10 14 23 29 31 27 27 30 35 37 36 36 36 34 35 36 37 40 42 41 36 33 32 31 31 29 29 28 27 28 28
13 12 7 5 4 4 4 5 3 7 9 7 8 15 18 25 16 17 29 35 39 38 38 37 36 39 40 42 39 42 40 37 35 37 39 39 38 36 34 32 30 29 30 30
3 2 10 9 5 7 3 2 3 5 3 13 18 23 27 19 21 39 39 37 35 38 37 41 40 40 36 39 40 40 34 38 36 35 33 33 33 36 36 33 32 32 32 31
4 3 4 6 5 7 4 3 5 13 19 18 26 28 29 31 34 37 39 39 38 41 40 40 40 36 38 40 39 36 36 37 33 33 32 34 36 33 31 32 32 32 33 33
4 3 2 5 2 2 5 8 13 13 17 26 28 29 29 33 36 37 40 40 42 40 40 38 42 42 36 42 33 34 37 31 31 33 34 34 33 32 32 34 35 34 33 34
3 5 6 8 2 4 10 13 9 15 24 27 29 29 30 34 35 39 40 41 43 42 41 45 33 38 44 36 31 32 32 33 34 36 36 36 38 38 37 38 36 36 36 36
11 12 9 12 10 12 7 10 20 24 25 27 29 30 31 32 36 39 41 42 42 43 41 37 45 42 44 36 33 31 32 35 35 34 36 37 38 38 39 41 43 43 44 41
8 6 4 3 10 8 16 22 24 26 29 28 29 32 32 32 38 41 42 43 42 40 45 43 40 39 39 39 37 34 33 33 35 38 37 37 37 38 39 41 42 42 43 42

GFSCGP_850_spd_105.txt.gz
Wind_Speed
17 13 15 17 17 18 17 13 16 12 7 8 12 16 17 17 19 17 20 21 21 20 18 18 18 15 15 12 9 10 14 21 20 21 23 23 25 25 25 26 28 29 30 30
15 16 17 16 13 11 13 16 18 17 14 13 16 20 17 17 16 22 22 22 21 22 20 19 18 17 17 15 15 14 13 14 15 22 25 26 26 26 26 24 27 29 29 30
18 12 5 10 15 14 17 17 17 17 14 10 16 19 19 18 27 28 24 24 23 22 22 20 17 16 13 13 16 17 17 16 16 19 23 26 27 27 26 28 27 28 32 35
16 16 16 13 13 12 17 17 17 15 15 15 16 16 16 12 14 13 17 20 21 24 23 18 10 9 13 16 16 17 16 16 20 22 19 26 30 31 31 32 31 30 31 32
16 15 12 17 20 17 18 15 12 15 16 18 19 13 15 17 16 16 13 14 16 10 1 4 7 10 13 16 17 17 18 17 16 18 21 22 25 30 33 33 32 32 31 33
16 14 6 12 9 5 13 10 14 16 16 18 20 19 17 16 17 11 10 17 7 4 1 6 9 11 14 14 14 15 14 16 16 16 18 23 28 26 26 29 32 34 35 37
17 20 19 17 15 14 13 13 12 15 15 18 20 20 15 7 9 10 13 10 10 4 3 5 8 11 11 11 9 9 10 12 14 16 17 18 22 25 29 30 31 33 34 41
14 14 11 11 16 16 19 18 13 22 18 18 20 18 14 16 4 6 6 4 1 4 4 7 10 11 13 12 13 13 14 13 13 15 16 18 19 21 24 27 30 34 38 48
10 17 8 12 13 12 16 16 15 14 19 18 18 26 22 24 18 13 14 14 8 5 8 12 13 13 14 15 15 16 15 16 16 17 17 17 18 22 26 31 33 32 39 43
2 11 13 15 18 19 16 12 8 8 6 16 15 16 7 12 11 5 7 8 7 8 13 15 15 16 15 15 16 15 15 16 17 17 16 17 18 18 21 25 27 35 34 40
8 12 16 16 19 20 15 12 17 16 14 10 15 12 7 6 4 6 5 5 8 12 15 18 19 21 21 20 18 17 15 15 16 15 15 15 17 18 18 21 23 26 31 37
5 4 13 21 20 19 15 19 15 5 10 13 11 8 11 6 11 7 8 9 14 17 20 21 22 22 21 19 17 17 16 17 17 17 16 15 14 15 15 16 17 20 25 26
3 4 8 13 15 14 14 13 14 13 13 19 14 12 4 6 11 10 14 21 20 16 16 15 17 17 18 19 17 17 19 20 20 19 18 17 16 14 14 14 14 14 14 18
4 13 14 14 19 5 8 16 17 13 9 15 19 24 22 10 12 14 25 21 17 17 17 19 21 21 20 20 21 21 22 23 23 22 21 20 19 17 16 19 16 10 13 15
4 9 16 20 21 21 23 21 20 20 21 20 21 23 21 18 21 19 14 18 18 19 20 20 24 25 26 25 25 26 26 26 25 25 25 24 22 21 19 19 25 28 23 15
9 7 15 20 18 20 22 22 22 23 22 19 23 25 22 27 7 15 14 18 22 22 23 26 30 24 28 27 28 30 30 29 29 29 28 26 26 25 23 20 22 26 46 37
5 3 7 13 12 13 14 17 18 17 14 16 16 14 7 9 10 14 16 20 24 27 31 31 28 29 31 32 31 33 33 30 30 31 32 31 29 29 27 24 21 22 23 32
8 14 4 9 11 11 9 3 5 6 11 11 12 12 12 12 17 24 27 30 31 28 30 33 35 37 36 33 32 33 32 31 30 32 35 34 33 32 30 28 26 24 25 27
19 11 3 5 9 15 21 6 2 5 10 11 11 11 16 23 28 28 24 24 30 34 37 38 38 38 38 36 35 39 37 35 38 39 38 37 39 38 34 32 30 28 28 29
7 9 5 9 7 8 6 1 6 7 9 10 13 13 17 25 16 16 34 36 37 37 39 38 38 39 39 38 40 37 36 36 39 40 41 36 34 33 35 33 30 31 30 31
4 4 8 11 8 7 5 2 5 7 5 15 14 21 25 18 20 36 36 38 37 37 37 38 39 39 39 35 37 38 36 38 40 39 36 33 34 36 37 33 34 36 33 31
7 4 5 7 5 8 11 5 5 9 17 19 23 26 28 32 34 35 38 38 39 39 41 40 42 39 42 37 38 42 42 40 43 38 34 35 34 34 32 33 37 30 35 35
4 3 2 4 4 4 6 12 9 9 15 21 26 29 31 34 35 37 38 38 39 37 39 40 42 43 43 45 36 37 40 38 37 33 35 35 36 33 33 37 34 35 32 33
5 6 4 7 5 6 16 6 7 14 20 25 26 29 31 34 36 38 39 40 39 37 42 45 40 49 38 39 37 37 41 37 34 36 36 34 35 37 35 35 35 35 37 35
10 8 13 16 15 13 6 10 16 21 23 26 29 28 30 31 36 38 40 41 38 46 45 41 44 42 44 37 38 36 34 34 34 36 35 39 39 36 39 42 40 39 44 39
6 8 6 7 6 8 13 18 20 22 26 25 28 32 32 33 36 38 40 43 41 44 47 48 46 43 43 43 40 37 34 32 33 36 38 38 38 40 37 38 40 43 45 39

GFSCGP_850_spd_108.txt.gz
Wind_Speed
16 11 14 17 18 19 20 21 16 14 13 15 18 14 14 14 18 19 23 24 23 20 22 16 17 17 15 16 13 12 13 18 19 20 21 22 25 25 25 29 29 30 33 35
14 16 17 18 18 18 18 18 17 17 19 16 16 17 15 18 20 23 22 20 20 22 22 21 19 16 19 15 17 15 13 14 14 23 23 24 23 25 28 28 31 32 33 37
17 18 16 18 16 18 16 15 16 19 19 19 17 16 16 20 23 25 26 23 21 20 19 21 21 18 18 13 11 12 15 17 16 15 23 25 29 32 25 31 35 33 37 40
16 18 19 12 12 13 19 16 19 19 17 14 17 16 18 19 20 22 28 28 25 21 20 18 22 8 5 4 7 9 14 15 17 16 19 23 24 25 33 36 25 35 37 41
15 16 16 15 16 19 18 17 17 19 16 16 19 13 15 16 17 18 16 22 21 21 17 12 7 5 2 4 8 11 14 19 22 19 21 20 22 26 26 25 34 40 34 38
17 26 16 9 12 10 8 14 18 15 15 16 19 18 17 17 18 17 17 19 19 14 15 8 5 1 2 4 6 11 13 14 11 15 16 18 22 25 27 24 28 28 38 32
16 17 17 19 14 15 14 12 10 14 14 15 21 18 15 14 12 10 7 7 17 12 9 6 5 1 4 5 8 6 9 14 16 16 17 18 19 20 24 30 34 33 32 30
10 10 12 9 11 12 16 11 10 19 15 18 22 14 14 15 18 20 13 5 16 11 9 5 3 4 6 8 8 9 13 16 15 16 19 18 20 23 23 22 24 33 40 41
8 16 13 8 15 16 11 11 14 16 15 15 15 23 20 10 13 18 10 10 8 10 7 2 5 7 7 11 12 11 14 15 16 17 18 21 20 25 23 24 27 33 36 38
7 13 11 15 13 18 12 12 6 4 5 13 13 13 10 14 12 9 7 2 7 4 1 5 9 10 11 13 14 17 15 14 15 17 18 16 21 22 23 26 28 33 35 37
9 10 13 14 14 18 16 11 11 11 12 7 11 10 2 10 13 13 4 5 5 7 10 13 16 15 14 18 20 22 20 16 18 18 20 22 20 22 24 22 27 30 33 33
4 4 10 17 19 21 19 19 17 6 10 10 12 8 14 9 7 8 12 9 6 9 14 16 17 19 16 18 17 19 19 15 16 18 20 19 20 21 25 26 20 24 25 27
7 3 8 9 12 8 7 13 11 12 7 8 10 11 7 5 10 18 17 16 17 21 22 19 17 19 19 19 18 19 22 20 21 21 23 25 23 24 25 29 26 23 23 24
5 9 13 13 17 18 18 13 13 12 3 5 13 18 16 12 11 16 19 13 21 21 20 20 21 20 21 20 20 20 24 24 23 24 25 26 29 26 26 30 28 28 26 28
3 9 15 16 17 19 23 24 21 20 22 18 22 21 21 18 17 13 20 13 13 18 17 20 23 22 22 27 25 25 26 25 26 29 29 29 30 30 29 28 30 29 31 31
3 9 13 19 19 21 24 24 23 22 23 22 23 22 19 18 17 8 9 12 16 21 21 21 24 26 22 19 23 26 24 22 23 28 30 30 29 31 33 32 33 32 32 32
5 3 6 14 18 13 15 18 19 13 17 20 15 11 11 9 12 13 15 18 22 26 27 26 25 28 29 30 29 27 27 28 32 32 30 30 31 34 32 31 33 34 32 32
11 11 5 8 13 13 10 8 18 10 9 12 12 10 11 10 14 19 21 20 20 25 28 30 32 35 37 38 36 33 33 31 32 33 30 31 33 35 39 43 36 34 34 32
16 11 3 4 9 16 21 7 3 6 8 11 7 11 15 20 26 24 20 27 29 29 32 33 33 31 35 39 40 40 44 43 39 38 36 36 38 41 39 40 39 41 34 35
13 14 6 7 6 6 7 1 5 4 10 11 12 13 16 23 14 14 32 34 33 33 33 34 34 31 33 33 33 36 37 36 38 37 37 37 37 34 37 41 40 35 31 34
3 3 9 8 7 9 4 3 13 6 4 13 15 19 21 15 17 31 34 34 34 35 34 34 36 30 31 35 39 42 39 37 36 33 36 36 36 37 41 37 35 37 37 29
8 5 5 7 6 7 13 13 5 3 10 14 17 21 24 27 30 32 33 34 35 36 37 36 31 32 46 47 43 37 41 44 43 44 40 40 41 40 38 36 38 38 36 36
4 4 1 4 3 4 9 11 8 7 12 15 21 24 25 29 30 33 35 36 36 37 36 33 35 50 47 42 37 45 37 36 36 37 39 41 41 38 36 35 34 34 37 31
4 3 3 4 2 10 10 3 5 11 16 20 21 25 26 30 31 34 35 36 37 35 40 42 45 43 46 43 41 40 39 37 40 41 40 37 35 36 36 35 34 34 33 36
13 10 10 14 7 20 1 6 15 17 19 22 24 25 26 29 33 34 35 36 38 40 40 40 46 45 48 45 44 41 38 35 37 37 37 39 40 38 36 38 40 40 39 36
14 5 4 4 7 7 14 16 17 19 21 23 25 27 27 28 31 33 36 37 38 42 42 50 45 46 48 45 41 36 32 31 34 38 37 36 35 35 36 35 39 42 41 43

GFSCGP_850_spd_111.txt.gz
Wind_Speed
10 3 6 11 11 13 12 12 12 10 8 5 5 7 9 13 14 11 19 23 26 28 24 18 17 25 27 20 17 19 16 16 16 16 25 27 27 25 31 37 38 39 38 38
5 7 11 12 13 12 15 15 14 7 9 7 8 8 8 8 6 13 15 24 31 30 29 26 23 19 22 24 22 22 20 18 18 12 14 22 24 28 30 33 32 38 40 39
8 10 14 17 14 12 8 6 7 5 10 10 8 9 8 5 8 21 27 33 23 32 31 31 30 27 25 25 15 10 7 5 7 12 14 16 24 29 25 30 35 38 38 38
9 13 15 13 7 7 7 10 12 10 6 9 3 12 7 8 10 14 25 33 34 31 23 19 16 16 23 20 14 10 6 2 5 11 11 17 22 29 32 30 29 30 36 36
7 6 9 12 10 7 6 7 9 8 7 2 6 4 5 7 12 14 11 35 40 37 32 21 21 21 15 10 5 4 6 5 5 5 9 14 17 24 31 34 35 36 30 28
8 15 5 7 14 9 5 5 8 6 2 8 6 8 8 13 13 8 6 8 29 21 25 25 20 15 12 9 6 4 5 7 8 7 9 12 16 20 25 33 37 36 37 34
7 9 8 8 7 8 5 4 4 4 4 8 9 11 8 5 7 4 7 21 28 28 24 20 18 13 7 4 2 3 3 6 9 10 13 13 13 19 24 29 32 34 40 40
3 3 4 6 6 6 7 0 3 5 3 4 10 5 5 6 13 18 14 25 20 21 21 17 11 6 3 2 3 5 7 10 17 19 19 19 16 16 21 25 28 30 33 36
1 4 11 8 10 4 6 5 2 3 5 3 4 9 11 6 9 12 21 22 20 23 16 12 7 4 1 3 7 9 12 15 18 18 20 22 22 25 26 26 24 28 35 36
5 4 4 6 11 7 3 6 4 3 1 5 5 6 2 8 8 12 13 17 18 13 11 8 8 9 3 2 2 6 9 13 17 16 15 17 18 25 28 33 31 27 28 30
2 2 4 7 3 6 5 4 3 4 5 5 2 5 5 2 8 10 12 22 15 11 10 9 7 9 11 13 16 19 19 14 14 14 12 13 17 21 22 28 31 33 30 29
5 3 3 6 13 15 10 6 4 3 3 4 3 10 10 6 7 9 13 20 16 14 13 15 18 17 17 17 17 17 18 20 12 13 16 17 19 19 20 23 28 33 34 32
4 2 3 7 6 6 5 1 4 3 1 4 5 4 8 3 3 8 15 18 15 11 16 20 16 14 17 17 14 14 13 18 24 24 22 21 25 27 28 31 29 32 37 35
6 1 5 5 6 8 11 10 11 7 4 4 9 11 16 15 7 13 18 20 10 11 16 17 13 13 20 20 23 24 26 24 24 29 31 31 29 29 31 35 37 35 36 36
6 4 5 8 12 14 15 16 16 15 13 10 17 15 17 14 5 5 9 9 8 9 14 17 18 19 16 12 11 13 18 21 21 20 22 25 29 33 36 37 36 34 35 37
3 2 4 9 13 14 18 17 15 17 18 20 18 14 9 9 15 18 13 10 11 13 17 19 21 24 24 26 27 27 26 28 29 31 34 34 31 26 25 28 28 29 29 27
6 3 1 5 8 14 11 13 12 7 12 2 4 3 10 8 8 7 13 16 18 20 22 25 28 33 36 35 33 34 34 33 33 36 37 34 32 33 36 37 38 39 39 34
6 5 2 4 7 4 6 10 2 6 12 12 4 5 6 4 14 16 11 18 19 21 22 24 28 33 35 34 37 40 42 39 37 41 43 41 40 43 44 44 42 43 45 49
9 5 2 3 3 10 11 5 4 3 2 1 7 7 10 16 16 9 23 29 29 29 29 31 32 32 30 31 32 33 36 39 40 43 42 42 37 39 40 41 41 41 42 43
11 8 6 3 3 3 2 8 12 4 2 5 7 6 9 19 6 7 27 30 27 26 29 33 38 42 33 28 30 34 39 47 54 57 45 39 39 41 40 37 42 40 39 41
2 3 8 6 3 6 6 9 6 0 1 9 10 13 17 4 7 26 29 29 31 34 37 36 35 29 33 38 43 52 56 53 47 37 35 39 40 32 35 39 40 40 42 42
3 2 4 4 4 6 6 6 0 3 8 12 14 19 15 20 23 25 29 33 33 33 34 30 36 38 40 47 44 48 45 45 41 45 39 35 34 37 38 36 39 38 37 35
2 4 2 3 4 7 11 2 6 7 13 13 19 14 19 22 24 28 32 32 34 31 35 34 37 45 52 48 45 43 47 43 41 38 40 38 36 34 34 34 36 38 36 33
5 7 3 5 4 8 10 7 7 10 15 16 16 18 20 23 28 30 30 30 33 34 34 39 42 45 49 45 42 42 44 39 38 38 38 38 38 38 40 38 33 34 35 33
6 2 4 11 4 7 6 6 9 18 18 16 15 16 22 24 26 27 29 39 32 37 40 41 42 49 47 48 45 40 35 32 33 34 34 35 34 34 33 34 36 34 36 35
9 3 2 4 7 12 18 8 12 15 14 15 18 22 22 21 26 29 35 28 39 45 45 42 47 44 46 46 41 37 32 29 29 31 32 32 32 33 34 35 36 35 36 37

GFSCGP_850_spd_114.txt.gz
Wind_Speed
3 4 5 8 7 7 6 5 8 11 11 4 6 7 9 16 14 13 14 15 22 24 25 26 25 23 25 22 20 20 22 19 15 15 19 24 28 28 29 28 29 35 34 36
2 7 11 9 7 7 8 10 12 8 10 7 4 7 5 5 6 14 14 16 20 25 28 29 25 23 27 25 22 20 21 20 16 13 12 17 24 25 26 27 29 29 32 37
6 9 9 9 10 8 9 9 6 8 6 2 3 6 5 7 6 12 12 18 23 27 31 34 32 30 27 30 29 27 22 15 10 10 11 12 15 20 24 28 28 24 25 32
6 17 11 7 8 8 15 12 8 5 1 5 2 5 4 6 8 6 20 28 27 34 35 31 37 34 28 26 25 23 20 17 14 11 13 15 17 20 24 25 28 29 26 22
7 3 2 3 3 3 8 6 6 1 1 3 7 2 7 5 10 10 10 26 29 30 36 35 29 25 24 29 26 22 18 15 13 13 16 16 13 15 18 21 25 29 30 29
5 3 3 3 7 3 5 1 5 4 3 2 5 4 2 5 5 8 12 11 18 15 14 22 30 30 27 21 18 15 14 13 12 11 12 15 18 19 19 20 22 25 26 25
4 4 2 4 2 7 9 6 4 4 3 5 3 3 7 3 4 5 4 16 21 21 27 27 28 24 18 13 9 7 6 7 10 12 13 15 18 23 23 21 23 26 25 24
3 1 3 2 4 1 2 4 4 4 3 4 5 4 4 3 9 19 11 8 32 27 21 17 15 14 11 8 5 2 3 7 11 14 17 20 22 22 24 25 26 28 30 27
4 4 2 11 5 3 4 4 4 3 3 2 4 5 6 4 8 14 16 22 22 18 16 14 13 10 8 5 3 1 2 6 10 13 17 20 22 23 26 29 31 30 30 29
1 1 5 6 6 5 4 3 1 3 2 4 4 4 5 4 7 9 8 15 19 14 13 11 8 6 3 2 1 4 8 12 14 17 19 22 23 25 25 23 25 28 29 29
3 4 5 4 2 2 5 4 3 3 4 4 2 5 4 6 5 6 4 9 11 12 17 15 12 11 10 12 15 18 19 21 19 15 19 20 21 21 24 27 26 27 28 29
3 4 0 4 7 5 3 1 3 4 3 2 2 7 3 4 7 13 13 12 13 10 12 14 15 20 25 28 29 24 18 19 21 19 18 20 22 23 25 29 31 33 34 34
0 3 3 8 5 6 6 3 3 4 3 6 4 4 5 14 13 17 22 29 20 9 9 9 11 9 5 6 10 11 13 15 16 19 24 28 29 31 33 35 38 39 40 37
7 2 5 5 4 1 5 7 5 7 4 4 11 16 16 18 13 14 25 18 15 8 5 6 4 5 7 8 10 11 11 12 13 14 16 19 21 23 26 29 32 34 35 38
5 4 3 4 6 5 8 12 13 9 9 10 11 16 16 8 2 4 2 6 11 11 10 12 14 17 18 20 22 25 28 30 32 32 32 33 33 33 32 30 30 31 33 37
3 3 3 4 8 10 13 14 13 15 13 13 14 13 4 2 5 8 11 13 12 14 16 20 23 25 28 30 33 37 39 40 40 41 43 43 44 44 43 40 38 37 33 30
4 5 3 4 4 7 7 6 7 6 2 3 2 1 3 5 7 7 9 11 14 18 20 20 22 25 28 31 33 35 36 39 43 45 46 46 46 45 43 43 45 45 41 39
6 5 3 3 3 2 5 6 2 8 3 2 4 1 2 3 9 10 9 16 19 18 18 21 26 31 35 38 39 38 40 43 45 45 44 43 42 38 38 41 43 43 40 40
7 5 3 3 3 6 7 3 3 1 4 3 2 3 4 12 11 11 11 22 20 21 26 31 33 36 36 37 38 37 36 38 43 47 51 54 56 58 59 51 42 38 38 39
7 4 3 3 4 5 2 2 2 2 3 3 4 3 7 11 3 4 16 17 24 29 31 32 34 34 34 33 40 49 53 55 53 51 48 43 45 36 34 35 33 34 36 37
3 1 7 6 5 5 3 4 1 3 5 4 11 9 11 2 7 21 23 28 31 30 31 29 33 39 41 44 49 50 46 43 50 42 40 46 39 43 45 45 44 38 30 33
5 4 3 2 3 6 4 3 3 5 4 10 10 14 10 13 17 22 28 31 30 31 35 40 36 41 49 46 41 43 45 46 45 43 44 40 38 35 36 29 29 29 36 31
1 5 2 4 3 8 16 13 4 3 4 6 13 12 9 15 21 26 28 29 29 35 36 35 45 50 49 38 37 45 44 44 41 39 39 37 36 35 35 34 31 28 31 30
4 5 3 1 3 8 12 1 3 6 10 13 13 9 14 20 22 24 28 28 35 33 38 49 52 50 40 43 44 41 41 37 33 34 34 33 33 32 33 32 32 31 37 33
6 3 3 4 6 7 9 9 12 10 16 12 8 12 14 17 22 26 27 34 32 39 49 50 46 39 46 47 43 38 36 31 33 33 34 33 32 31 30 30 30 32 31 31
7 6 4 5 8 6 10 8 10 14 5 7 11 15 18 21 24 27 31 29 39 47 48 45 38 44 45 42 40 36 33 31 31 33 35 35 33 30 31 29 29 30 34 37

GFSCGP_850_spd_117.txt.gz
Wind_Speed
5 4 5 8 6 4 2 3 5 5 3 2 8 6 8 15 13 17 22 24 27 27 22 19 26 25 23 18 20 25 27 28 27 27 25 24 24 22 22 22 22 25 25 23
5 5 7 4 3 4 4 3 6 9 6 6 7 8 9 6 6 10 15 17 23 23 19 22 26 26 26 23 24 25 27 30 29 27 24 23 19 21 23 26 25 25 25 26
6 5 4 3 3 3 5 4 6 8 6 2 3 6 5 5 6 11 9 10 15 17 20 24 28 30 28 26 29 29 28 27 30 27 25 24 21 21 21 21 22 23 24 25
5 7 4 4 6 7 7 8 14 8 2 4 2 5 5 5 8 5 17 22 25 25 22 24 28 35 36 31 31 30 32 33 27 23 22 21 20 17 14 14 15 17 19 20
5 2 4 3 6 6 8 4 8 7 5 3 2 2 7 4 7 7 10 19 20 21 23 28 26 24 33 31 30 32 31 29 26 23 21 20 17 14 13 13 16 19 21 23
5 2 2 4 1 2 3 3 8 5 3 0 4 4 4 3 3 6 8 16 14 7 7 8 10 14 21 28 29 30 28 25 21 19 16 11 9 9 10 14 18 19 16 16
3 3 3 2 3 6 6 6 2 3 2 5 1 1 8 3 4 3 4 13 12 16 18 19 20 22 22 21 21 20 17 15 11 8 7 8 9 12 15 18 19 19 18 20
4 2 1 2 4 4 2 6 5 6 4 3 4 4 3 4 8 15 25 21 20 18 18 19 18 16 12 9 7 4 2 3 5 8 12 15 19 20 20 20 20 21 24 27
4 2 1 6 1 3 2 3 3 5 2 3 4 6 1 5 8 12 15 21 21 22 21 16 11 11 11 7 4 4 5 7 9 11 14 18 19 21 22 22 24 26 26 25
2 2 2 2 2 7 4 5 3 3 4 4 4 4 5 2 5 7 8 13 15 12 13 16 14 7 5 3 1 6 9 13 16 18 20 22 21 21 22 25 26 28 29 30
3 3 3 1 3 2 5 3 5 3 3 5 1 5 3 5 2 5 7 15 16 16 24 30 24 20 13 11 13 14 14 16 17 17 19 19 21 24 26 28 27 28 30 31
2 4 0 3 6 4 2 3 3 4 4 1 1 5 4 5 4 4 16 23 21 24 19 15 13 16 22 26 19 20 23 23 19 17 19 19 22 25 28 29 29 30 33 33
4 2 2 6 5 5 6 2 4 4 3 5 4 4 6 10 16 18 22 27 23 20 10 14 13 12 9 11 11 13 14 16 19 21 22 24 26 28 29 28 29 29 29 30
6 3 5 5 3 3 3 3 4 5 3 4 6 7 8 11 16 21 28 15 7 4 4 2 3 5 8 11 14 17 19 21 24 26 28 29 28 29 30 30 30 30 31 32
4 3 3 4 4 3 5 10 6 8 7 8 3 13 11 7 8 7 5 5 6 7 9 11 14 17 18 20 23 26 28 30 32 36 38 39 39 39 40 40 40 39 39 38
4 2 2 3 5 5 8 10 9 11 12 13 10 14 5 1 6 6 6 7 10 13 15 17 19 23 26 28 31 35 38 40 39 40 40 41 43 44 46 47 46 44 41 37
3 5 3 4 3 6 7 6 7 5 6 5 6 7 0 2 5 5 2 6 11 16 18 21 24 27 30 34 36 40 39 38 37 37 39 42 43 45 45 46 45 43 44 44
6 6 3 2 2 3 5 4 5 4 1 1 2 1 2 3 8 11 9 7 13 15 22 29 33 35 34 35 36 37 39 39 43 47 50 52 53 53 51 50 49 48 46 46
5 5 2 3 3 6 5 0 1 1 4 5 3 4 7 9 11 11 9 11 18 23 29 31 30 32 34 36 40 40 44 51 54 51 46 44 42 48 45 41 41 45 39 35
4 3 4 3 3 5 4 2 2 1 5 5 3 5 5 7 4 4 9 19 23 26 28 29 30 34 38 38 40 48 54 49 43 39 41 41 47 35 37 41 42 35 28 30
3 1 7 5 4 5 4 3 1 3 5 4 6 10 11 4 9 15 19 23 26 29 29 30 36 38 38 45 50 50 47 40 39 43 43 41 44 41 41 40 37 36 32 39
5 5 3 2 3 7 9 7 2 4 4 9 11 13 15 14 15 19 24 29 29 31 33 37 37 42 48 51 47 45 41 45 44 39 40 44 41 38 34 33 34 34 32 33
1 5 4 7 5 2 9 9 19 12 9 8 12 16 15 13 19 24 29 31 32 31 36 36 43 51 53 49 40 37 49 44 41 39 40 39 37 35 32 32 32 33 33 29
2 3 3 1 4 9 12 16 15 13 13 15 17 13 11 16 20 26 30 30 33 34 37 43 49 50 50 44 41 43 40 38 37 38 38 36 37 35 33 29 28 29 28 26
5 2 2 4 6 9 12 11 12 14 17 20 11 10 13 19 26 25 29 31 31 37 44 48 45 45 46 43 45 40 36 34 34 36 37 38 36 34 33 29 28 26 28 25
6 6 4 5 13 11 15 11 14 17 16 7 8 14 19 21 22 27 27 28 36 43 46 44 43 43 43 44 41 37 33 31 34 36 35 34 34 32 29 30 29 27 25 26